EJU62FU EGKK-LPPR

Flight info

Callsign EJU62FU
Flight time 2h 3m
Altitude 37000
Route IMVUR N63 SAM M195 LORKU/N0447F390 DCT POZOF DCT LOTEE DCT ELTEP/N0356F230 T328 ASPOR
Aircraft A20N/M-SDE2E3FGHIRWXY/LB1

Departure

Time 2026-05-07 16:16
Airport London Gatwick Airport (EGKK)

Arrival

Time 2026-05-07 18:19
Airport Francisco de Sá Carneiro Airport (LPPR)
Time Latitude Longitude Altitude Speed Heading
2026-05-07 15:50 51.15593 -0.17627 215 ft 0 kts 347°
2026-05-07 16:01 51.15592 -0.17627 204 ft 0 kts 347°
2026-05-07 16:05 51.15592 -0.17626 204 ft 1 kts 347°
2026-05-07 16:05 51.15578 -0.17621 208 ft 3 kts 343°
2026-05-07 16:05 51.15559 -0.17610 216 ft 3 kts 333°
2026-05-07 16:06 51.15542 -0.17594 211 ft 3 kts 313°
2026-05-07 16:06 51.15532 -0.17571 217 ft 2 kts 268°
2026-05-07 16:06 51.15532 -0.17562 209 ft 0 kts 257°
2026-05-07 16:08 51.15532 -0.17564 204 ft 0 kts 257°
2026-05-07 16:09 51.15529 -0.17583 214 ft 4 kts 257°
2026-05-07 16:09 51.15521 -0.17641 204 ft 7 kts 257°
2026-05-07 16:09 51.15508 -0.17735 204 ft 10 kts 258°
2026-05-07 16:09 51.15491 -0.17861 204 ft 13 kts 258°
2026-05-07 16:10 51.15470 -0.18015 207 ft 14 kts 257°
2026-05-07 16:10 51.15446 -0.18183 214 ft 17 kts 257°
2026-05-07 16:10 51.15374 -0.18264 211 ft 14 kts 163°
2026-05-07 16:10 51.15270 -0.18240 204 ft 16 kts 168°
2026-05-07 16:11 51.15186 -0.18291 211 ft 14 kts 263°
2026-05-07 16:11 51.15169 -0.18463 214 ft 17 kts 258°
2026-05-07 16:11 51.15141 -0.18656 208 ft 19 kts 257°
2026-05-07 16:11 51.15112 -0.18874 215 ft 21 kts 258°
2026-05-07 16:12 51.15079 -0.19112 208 ft 23 kts 257°
2026-05-07 16:12 51.15043 -0.19367 205 ft 24 kts 258°
2026-05-07 16:12 51.15008 -0.19625 208 ft 24 kts 257°
2026-05-07 16:12 51.14971 -0.19891 214 ft 25 kts 257°
2026-05-07 16:13 51.14931 -0.20176 206 ft 27 kts 257°
2026-05-07 16:13 51.14890 -0.20475 204 ft 28 kts 257°
2026-05-07 16:13 51.14847 -0.20787 204 ft 29 kts 257°
2026-05-07 16:13 51.14808 -0.21070 210 ft 23 kts 257°
2026-05-07 16:14 51.14766 -0.21308 211 ft 22 kts 258°
2026-05-07 16:14 51.14704 -0.21406 209 ft 7 kts 165°
2026-05-07 16:14 51.14661 -0.21364 213 ft 8 kts 135°
2026-05-07 16:14 51.14605 -0.21325 208 ft 10 kts 170°
2026-05-07 16:15 51.14541 -0.21276 209 ft 11 kts 136°
2026-05-07 16:15 51.14521 -0.21162 206 ft 12 kts 78°
2026-05-07 16:15 51.14525 -0.21135 208 ft 0 kts 78°
2026-05-07 16:15 51.14547 -0.20978 209 ft 45 kts 77°
2026-05-07 16:16 51.14666 -0.20129 213 ft 109 kts 77°
2026-05-07 16:16 51.14863 -0.18684 208 ft 156 kts 77°
2026-05-07 16:16 51.15100 -0.16936 648 ft 163 kts 82°
2026-05-07 16:16 51.15300 -0.15140 1311 ft 166 kts 84°
2026-05-07 16:17 51.15502 -0.13287 1907 ft 173 kts 81°
2026-05-07 16:17 51.15743 -0.11351 2479 ft 183 kts 79°
2026-05-07 16:17 51.16025 -0.09291 3011 ft 204 kts 78°
2026-05-07 16:17 51.16538 -0.07050 3473 ft 226 kts 54°
2026-05-07 16:18 51.17756 -0.05466 4356 ft 230 kts 22°
2026-05-07 16:18 51.19328 -0.05146 5309 ft 232 kts 351°
2026-05-07 16:18 51.20874 -0.05753 6200 ft 236 kts 335°
2026-05-07 16:18 51.22106 -0.07278 7016 ft 240 kts 306°
2026-05-07 16:19 51.22744 -0.09729 7808 ft 243 kts 274°
2026-05-07 16:19 51.22597 -0.12401 8660 ft 246 kts 257°
2026-05-07 16:19 51.22239 -0.15184 9178 ft 267 kts 256°
2026-05-07 16:19 51.21844 -0.18168 9809 ft 280 kts 256°
2026-05-07 16:20 51.21459 -0.21231 10681 ft 283 kts 257°
2026-05-07 16:20 51.21087 -0.24332 11512 ft 287 kts 257°
2026-05-07 16:20 51.20718 -0.27485 12324 ft 291 kts 257°
2026-05-07 16:20 51.20367 -0.30521 13121 ft 295 kts 257°
2026-05-07 16:21 51.19993 -0.33755 13920 ft 299 kts 257°
2026-05-07 16:21 51.19602 -0.37022 14669 ft 301 kts 257°
2026-05-07 16:21 51.19177 -0.40299 15434 ft 303 kts 256°
2026-05-07 16:21 51.18739 -0.43599 16199 ft 305 kts 257°
2026-05-07 16:22 51.18298 -0.46917 16939 ft 307 kts 257°
2026-05-07 16:22 51.17855 -0.50262 17691 ft 310 kts 257°
2026-05-07 16:22 51.17329 -0.53604 18425 ft 312 kts 251°
2026-05-07 16:22 51.16523 -0.56815 18991 ft 317 kts 246°
2026-05-07 16:23 51.15627 -0.60134 19177 ft 336 kts 246°
2026-05-07 16:23 51.14713 -0.63554 19336 ft 353 kts 246°
2026-05-07 16:23 51.13837 -0.66836 19504 ft 366 kts 246°
2026-05-07 16:23 51.12834 -0.70596 20051 ft 371 kts 246°
2026-05-07 16:24 51.11822 -0.74385 20679 ft 373 kts 246°
2026-05-07 16:24 51.10802 -0.78195 21276 ft 376 kts 246°
2026-05-07 16:24 51.09771 -0.82040 21867 ft 379 kts 246°
2026-05-07 16:24 51.08730 -0.85912 22447 ft 382 kts 246°
2026-05-07 16:25 51.07679 -0.89815 23021 ft 386 kts 246°
2026-05-07 16:25 51.06619 -0.93747 23589 ft 389 kts 246°
2026-05-07 16:25 51.05549 -0.97712 24063 ft 392 kts 246°
2026-05-07 16:25 51.04468 -1.01704 24559 ft 394 kts 246°
2026-05-07 16:26 51.03382 -1.05713 25042 ft 396 kts 246°
2026-05-07 16:26 51.02286 -1.09744 25514 ft 399 kts 246°
2026-05-07 16:26 51.01183 -1.13800 25974 ft 401 kts 246°
2026-05-07 16:26 51.00449 -1.16492 26276 ft 403 kts 246°
2026-05-07 16:27 50.98968 -1.21917 26876 ft 406 kts 246°
2026-05-07 16:27 50.97842 -1.26035 27309 ft 408 kts 246°
2026-05-07 16:27 50.96643 -1.30127 27715 ft 410 kts 240°
2026-05-07 16:27 50.95021 -1.33864 28107 ft 413 kts 230°
2026-05-07 16:28 50.92965 -1.37064 28478 ft 417 kts 219°
2026-05-07 16:28 50.90570 -1.39689 28852 ft 420 kts 214°
2026-05-07 16:28 50.88116 -1.42224 29220 ft 422 kts 214°
2026-05-07 16:28 50.85656 -1.44775 29574 ft 424 kts 214°
2026-05-07 16:29 50.83181 -1.47345 29935 ft 426 kts 214°
2026-05-07 16:29 50.80694 -1.49924 30252 ft 429 kts 214°
2026-05-07 16:29 50.78197 -1.52512 30568 ft 430 kts 214°
2026-05-07 16:29 50.75689 -1.55107 30895 ft 432 kts 214°
2026-05-07 16:30 50.73172 -1.57707 31214 ft 433 kts 214°
2026-05-07 16:30 50.70652 -1.60308 31609 ft 432 kts 214°
2026-05-07 16:30 50.68139 -1.62897 32030 ft 431 kts 214°
2026-05-07 16:30 50.65633 -1.65477 32442 ft 429 kts 214°
2026-05-07 16:31 50.63135 -1.68045 32833 ft 428 kts 214°
2026-05-07 16:31 50.60644 -1.70603 33233 ft 427 kts 214°
2026-05-07 16:31 50.58160 -1.73151 33622 ft 425 kts 214°
2026-05-07 16:31 50.55687 -1.75683 33999 ft 424 kts 214°
2026-05-07 16:32 50.53216 -1.78211 34285 ft 424 kts 214°
2026-05-07 16:32 50.50744 -1.80736 34525 ft 424 kts 214°
2026-05-07 16:32 50.48268 -1.83263 34752 ft 425 kts 214°
2026-05-07 16:32 50.45790 -1.85789 34982 ft 425 kts 214°
2026-05-07 16:33 50.43308 -1.88317 35194 ft 426 kts 214°
2026-05-07 16:33 50.40824 -1.90844 35420 ft 426 kts 213°
2026-05-07 16:33 50.38332 -1.93373 35629 ft 426 kts 213°
2026-05-07 16:33 50.35842 -1.95899 35839 ft 427 kts 213°
2026-05-07 16:34 50.33347 -1.98425 36049 ft 427 kts 213°
2026-05-07 16:34 50.30851 -2.00948 36245 ft 427 kts 213°
2026-05-07 16:34 50.28352 -2.03473 36441 ft 428 kts 213°
2026-05-07 16:34 50.25852 -2.05995 36634 ft 428 kts 213°
2026-05-07 16:35 50.23347 -2.08511 36824 ft 428 kts 213°
2026-05-07 16:35 50.20821 -2.10990 36993 ft 429 kts 212°
2026-05-07 16:35 50.18286 -2.13447 37023 ft 429 kts 212°
2026-05-07 16:36 50.13234 -2.18339 37022 ft 427 kts 212°
2026-05-07 16:36 50.08220 -2.23200 37014 ft 427 kts 212°
2026-05-07 16:37 50.03174 -2.28085 37029 ft 427 kts 212°
2026-05-07 16:37 49.98127 -2.32961 37020 ft 427 kts 212°
2026-05-07 16:38 49.93021 -2.37650 37004 ft 427 kts 207°
2026-05-07 16:38 49.87613 -2.41472 37004 ft 427 kts 205°
2026-05-07 16:39 49.82196 -2.45234 37003 ft 427 kts 205°
2026-05-07 16:39 49.76783 -2.49007 37012 ft 427 kts 205°
2026-05-07 16:40 49.71365 -2.52775 36999 ft 427 kts 205°
2026-05-07 16:40 49.65947 -2.56532 36989 ft 427 kts 205°
2026-05-07 16:41 49.60524 -2.60283 36990 ft 427 kts 205°
2026-05-07 16:41 49.55099 -2.64026 36994 ft 427 kts 205°
2026-05-07 16:42 49.49670 -2.67762 36993 ft 428 kts 205°
2026-05-07 16:42 49.44234 -2.71495 36988 ft 428 kts 205°
2026-05-07 16:43 49.38791 -2.75222 36994 ft 428 kts 205°
2026-05-07 16:43 49.33344 -2.78944 36993 ft 429 kts 205°
2026-05-07 16:44 49.27892 -2.82660 36989 ft 429 kts 205°
2026-05-07 16:44 49.22439 -2.86367 36991 ft 429 kts 205°
2026-05-07 16:45 49.16981 -2.90069 36992 ft 429 kts 205°
2026-05-07 16:45 49.11521 -2.93763 36988 ft 429 kts 205°
2026-05-07 16:46 49.06061 -2.97449 36988 ft 429 kts 205°
2026-05-07 16:46 49.00599 -3.01125 36982 ft 429 kts 205°
2026-05-07 16:47 48.95140 -3.04793 36982 ft 429 kts 205°
2026-05-07 16:47 48.89682 -3.08451 36980 ft 429 kts 205°
2026-05-07 16:48 48.84223 -3.12101 36976 ft 429 kts 205°
2026-05-07 16:48 48.78977 -3.15600 36973 ft 428 kts 205°
2026-05-07 16:49 48.73625 -3.19161 36971 ft 428 kts 205°
2026-05-07 16:49 48.69087 -3.22174 36970 ft 428 kts 205°
2026-05-07 16:50 48.63629 -3.25789 36967 ft 428 kts 205°
2026-05-07 16:50 48.58172 -3.29396 36964 ft 428 kts 205°
2026-05-07 16:51 48.52766 -3.32960 36964 ft 428 kts 205°
2026-05-07 16:51 48.47264 -3.36580 36969 ft 428 kts 205°
2026-05-07 16:52 48.41808 -3.40161 36969 ft 428 kts 205°
2026-05-07 16:52 48.36353 -3.43732 36967 ft 428 kts 205°
2026-05-07 16:53 48.30887 -3.47303 36971 ft 429 kts 205°
2026-05-07 16:53 48.25415 -3.50868 36975 ft 429 kts 205°
2026-05-07 16:54 48.19943 -3.54426 36973 ft 429 kts 205°
2026-05-07 16:54 48.14469 -3.57977 36972 ft 429 kts 205°
2026-05-07 16:55 48.08991 -3.61522 36979 ft 429 kts 205°
2026-05-07 16:55 48.03506 -3.65064 36981 ft 430 kts 205°
2026-05-07 16:56 47.98019 -3.68598 36991 ft 430 kts 205°
2026-05-07 16:56 47.89777 -3.73892 36981 ft 430 kts 205°
2026-05-07 16:57 47.84277 -3.77414 36984 ft 430 kts 205°
2026-05-07 16:57 47.78779 -3.80926 36972 ft 430 kts 205°
2026-05-07 16:58 47.73273 -3.84436 36981 ft 430 kts 205°
2026-05-07 16:58 47.67769 -3.87936 36987 ft 431 kts 205°
2026-05-07 16:59 47.62292 -3.91412 36975 ft 431 kts 205°
2026-05-07 16:59 47.56779 -3.94902 36982 ft 431 kts 205°
2026-05-07 17:00 47.51255 -3.98390 36977 ft 432 kts 205°
2026-05-07 17:00 47.45728 -4.01873 36986 ft 432 kts 205°
2026-05-07 17:01 47.40195 -4.05352 36983 ft 433 kts 205°
2026-05-07 17:01 47.34651 -4.08831 36984 ft 433 kts 205°
2026-05-07 17:02 47.29136 -4.12282 36979 ft 433 kts 205°
2026-05-07 17:02 47.23583 -4.15749 36977 ft 434 kts 205°
2026-05-07 17:03 47.18013 -4.19219 36983 ft 435 kts 205°
2026-05-07 17:03 47.12435 -4.22688 36984 ft 435 kts 205°
2026-05-07 17:04 47.06852 -4.26155 36982 ft 436 kts 205°
2026-05-07 17:04 47.01321 -4.29796 36983 ft 436 kts 207°
2026-05-07 17:05 46.95839 -4.33612 36985 ft 436 kts 207°
2026-05-07 17:05 46.90342 -4.37394 36988 ft 437 kts 207°
2026-05-07 17:06 46.84865 -4.41126 36984 ft 437 kts 207°
2026-05-07 17:06 46.79347 -4.44872 36987 ft 438 kts 207°
2026-05-07 17:07 46.73822 -4.48616 36987 ft 438 kts 207°
2026-05-07 17:07 46.68296 -4.52351 36988 ft 438 kts 207°
2026-05-07 17:08 46.62764 -4.56083 36986 ft 438 kts 207°
2026-05-07 17:08 46.57233 -4.59805 36988 ft 438 kts 207°
2026-05-07 17:09 46.51703 -4.63518 36985 ft 438 kts 207°
2026-05-07 17:09 46.46171 -4.67224 36974 ft 438 kts 207°
2026-05-07 17:10 46.40641 -4.70920 36974 ft 437 kts 207°
2026-05-07 17:10 46.35113 -4.74608 36967 ft 437 kts 207°
2026-05-07 17:11 46.29584 -4.78286 36969 ft 437 kts 207°
2026-05-07 17:11 46.24055 -4.81957 36955 ft 438 kts 207°
2026-05-07 17:12 46.18521 -4.85624 36954 ft 438 kts 207°
2026-05-07 17:12 46.12978 -4.89288 36949 ft 438 kts 207°
2026-05-07 17:13 46.07427 -4.92949 36956 ft 439 kts 207°
2026-05-07 17:13 46.01871 -4.96606 36955 ft 439 kts 207°
2026-05-07 17:14 45.96307 -5.00259 36953 ft 440 kts 207°
2026-05-07 17:14 45.90732 -5.03912 36958 ft 441 kts 207°
2026-05-07 17:15 45.85149 -5.07561 36949 ft 441 kts 207°
2026-05-07 17:15 45.79561 -5.11206 36960 ft 441 kts 206°
2026-05-07 17:16 45.73966 -5.14846 36954 ft 442 kts 207°
2026-05-07 17:16 45.68369 -5.18482 36962 ft 443 kts 207°
2026-05-07 17:17 45.62796 -5.22093 36956 ft 443 kts 207°
2026-05-07 17:17 45.57177 -5.25726 36956 ft 443 kts 207°
2026-05-07 17:18 45.51552 -5.29355 36951 ft 444 kts 207°
2026-05-07 17:18 45.45923 -5.32978 36949 ft 444 kts 207°
2026-05-07 17:19 45.40293 -5.36594 36949 ft 444 kts 206°
2026-05-07 17:19 45.34662 -5.40203 36940 ft 444 kts 206°
2026-05-07 17:20 45.29032 -5.43802 36948 ft 444 kts 207°
2026-05-07 17:20 45.23403 -5.47393 36942 ft 443 kts 207°
2026-05-07 17:21 45.17778 -5.50975 36943 ft 443 kts 207°
2026-05-07 17:21 45.12151 -5.54551 36935 ft 443 kts 207°
2026-05-07 17:22 45.06528 -5.58115 36931 ft 443 kts 207°
2026-05-07 17:22 45.00909 -5.61669 36928 ft 442 kts 207°
2026-05-07 17:23 44.95289 -5.65216 36925 ft 442 kts 207°
2026-05-07 17:23 44.89673 -5.68754 36920 ft 442 kts 207°
2026-05-07 17:24 44.84057 -5.72282 36911 ft 441 kts 207°
2026-05-07 17:24 44.78449 -5.75799 36918 ft 441 kts 207°
2026-05-07 17:25 44.72850 -5.79305 36922 ft 441 kts 207°
2026-05-07 17:25 44.67258 -5.82851 36914 ft 440 kts 210°
2026-05-07 17:26 44.62091 -5.87366 36911 ft 436 kts 218°
2026-05-07 17:26 44.57184 -5.92269 36912 ft 436 kts 218°
2026-05-07 17:27 44.52227 -5.97191 36909 ft 436 kts 218°
2026-05-07 17:27 44.47266 -6.02095 36910 ft 437 kts 218°
2026-05-07 17:28 44.42301 -6.06988 36907 ft 436 kts 218°
2026-05-07 17:28 44.37333 -6.11873 36905 ft 437 kts 218°
2026-05-07 17:29 44.32366 -6.16750 36908 ft 437 kts 218°
2026-05-07 17:29 44.27387 -6.21628 36908 ft 437 kts 218°
2026-05-07 17:30 44.22409 -6.26492 36910 ft 437 kts 219°
2026-05-07 17:30 44.17428 -6.31351 36906 ft 437 kts 219°
2026-05-07 17:31 44.12443 -6.36203 36905 ft 437 kts 219°
2026-05-07 17:31 44.07454 -6.41050 36902 ft 437 kts 219°
2026-05-07 17:32 44.02462 -6.45887 36898 ft 437 kts 219°
2026-05-07 17:32 43.98317 -6.49895 36902 ft 437 kts 219°
2026-05-07 17:33 43.92487 -6.55525 36899 ft 437 kts 219°
2026-05-07 17:33 43.87497 -6.60332 36893 ft 437 kts 219°
2026-05-07 17:34 43.82508 -6.65128 36884 ft 436 kts 219°
2026-05-07 17:34 43.77525 -6.69907 36888 ft 436 kts 219°
2026-05-07 17:35 43.72571 -6.74649 36890 ft 436 kts 219°
2026-05-07 17:35 43.67584 -6.79414 36889 ft 436 kts 219°
2026-05-07 17:36 43.62715 -6.84056 36887 ft 436 kts 219°
2026-05-07 17:36 43.57763 -6.88763 36887 ft 430 kts 219°
2026-05-07 17:37 43.52831 -6.93449 36884 ft 431 kts 219°
2026-05-07 17:37 43.47891 -6.98132 36884 ft 431 kts 219°
2026-05-07 17:38 43.43784 -7.02017 36886 ft 431 kts 219°
2026-05-07 17:38 43.38853 -7.06668 36879 ft 428 kts 219°
2026-05-07 17:39 43.33946 -7.11291 36889 ft 428 kts 219°
2026-05-07 17:39 43.29030 -7.15916 36880 ft 428 kts 219°
2026-05-07 17:40 43.24116 -7.20527 36878 ft 428 kts 219°
2026-05-07 17:40 43.19222 -7.25108 36873 ft 422 kts 219°
2026-05-07 17:41 43.14406 -7.29608 36879 ft 420 kts 219°
2026-05-07 17:41 43.09573 -7.34121 36862 ft 419 kts 219°
2026-05-07 17:42 43.07171 -7.36357 36601 ft 416 kts 219°
2026-05-07 17:42 43.04779 -7.38583 36018 ft 416 kts 220°
2026-05-07 17:42 43.02379 -7.40814 35304 ft 418 kts 220°
2026-05-07 17:42 42.99967 -7.43057 34543 ft 420 kts 220°
2026-05-07 17:43 42.97540 -7.45310 33773 ft 423 kts 220°
2026-05-07 17:43 42.95184 -7.47492 32953 ft 425 kts 220°
2026-05-07 17:43 42.92729 -7.49767 32019 ft 429 kts 220°
2026-05-07 17:43 42.90249 -7.52065 31077 ft 434 kts 219°
2026-05-07 17:44 42.87759 -7.54365 30636 ft 427 kts 219°
2026-05-07 17:44 42.85340 -7.56590 30494 ft 413 kts 219°
2026-05-07 17:44 42.82999 -7.58742 30367 ft 399 kts 219°
2026-05-07 17:44 42.80738 -7.60823 30236 ft 385 kts 219°
2026-05-07 17:45 42.78557 -7.62833 30131 ft 372 kts 219°
2026-05-07 17:45 42.76455 -7.64770 30020 ft 359 kts 219°
2026-05-07 17:45 42.74427 -7.66636 29904 ft 345 kts 219°
2026-05-07 17:45 42.72472 -7.68433 29749 ft 334 kts 219°
2026-05-07 17:46 42.70563 -7.70190 29297 ft 331 kts 219°
2026-05-07 17:46 42.68666 -7.71938 28815 ft 329 kts 219°
2026-05-07 17:46 42.66832 -7.73626 28372 ft 326 kts 219°
2026-05-07 17:46 42.64959 -7.75346 27915 ft 324 kts 219°
2026-05-07 17:47 42.63086 -7.77032 27484 ft 323 kts 215°
2026-05-07 17:47 42.61086 -7.78427 27056 ft 324 kts 207°
2026-05-07 17:47 42.58947 -7.79425 26632 ft 326 kts 199°
2026-05-07 17:47 42.56767 -7.80212 26234 ft 323 kts 199°
2026-05-07 17:48 42.54601 -7.81017 25836 ft 321 kts 199°
2026-05-07 17:48 42.52456 -7.81822 25449 ft 319 kts 199°
2026-05-07 17:48 42.50328 -7.82623 25065 ft 317 kts 199°
2026-05-07 17:48 42.48211 -7.83419 24688 ft 315 kts 199°
2026-05-07 17:49 42.46107 -7.84209 24322 ft 313 kts 199°
2026-05-07 17:49 42.44016 -7.84993 23957 ft 311 kts 199°
2026-05-07 17:49 42.41939 -7.85772 23596 ft 309 kts 198°
2026-05-07 17:49 42.39871 -7.86546 23204 ft 307 kts 198°
2026-05-07 17:50 42.37825 -7.87311 22827 ft 304 kts 198°
2026-05-07 17:50 42.35800 -7.88066 22451 ft 300 kts 198°
2026-05-07 17:50 42.33822 -7.88803 22081 ft 297 kts 198°
2026-05-07 17:50 42.31837 -7.89542 21695 ft 295 kts 198°
2026-05-07 17:51 42.29868 -7.90276 21314 ft 292 kts 197°
2026-05-07 17:51 42.27919 -7.91000 20990 ft 289 kts 197°
2026-05-07 17:51 42.25989 -7.91717 20642 ft 286 kts 197°
2026-05-07 17:51 42.24090 -7.92422 20320 ft 282 kts 197°
2026-05-07 17:52 42.22198 -7.93126 19942 ft 281 kts 197°
2026-05-07 17:52 42.20327 -7.93820 19624 ft 278 kts 196°
2026-05-07 17:52 42.18464 -7.94513 19262 ft 276 kts 196°
2026-05-07 17:52 42.16626 -7.95193 18970 ft 273 kts 196°
2026-05-07 17:53 42.14803 -7.95869 18663 ft 270 kts 195°
2026-05-07 17:53 42.13000 -7.96537 18297 ft 269 kts 195°
2026-05-07 17:53 42.11197 -7.97205 17923 ft 267 kts 195°
2026-05-07 17:53 42.09421 -7.97861 17562 ft 264 kts 195°
2026-05-07 17:54 42.07650 -7.98515 17117 ft 265 kts 195°
2026-05-07 17:54 42.05894 -7.99163 16860 ft 259 kts 195°
2026-05-07 17:54 42.04150 -7.99806 16479 ft 258 kts 195°
2026-05-07 17:54 42.02440 -8.00438 16194 ft 254 kts 195°
2026-05-07 17:55 42.00722 -8.01071 15702 ft 258 kts 195°
2026-05-07 17:55 41.99008 -8.01702 15419 ft 254 kts 195°
2026-05-07 17:55 41.97299 -8.02331 15046 ft 253 kts 195°
2026-05-07 17:55 41.95609 -8.02952 14768 ft 250 kts 194°
2026-05-07 17:56 41.93938 -8.03567 14405 ft 250 kts 194°
2026-05-07 17:56 41.92272 -8.04179 14088 ft 247 kts 194°
2026-05-07 17:56 41.90626 -8.04783 13844 ft 243 kts 195°
2026-05-07 17:56 41.88993 -8.05382 13474 ft 242 kts 194°
2026-05-07 17:57 41.87377 -8.05975 13066 ft 242 kts 195°
2026-05-07 17:57 41.86298 -8.06370 12764 ft 243 kts 195°
2026-05-07 17:57 41.84149 -8.07156 12404 ft 236 kts 194°
2026-05-07 17:57 41.82562 -8.07738 11979 ft 237 kts 195°
2026-05-07 17:58 41.81024 -8.08485 11665 ft 234 kts 205°
2026-05-07 17:58 41.79597 -8.09542 11274 ft 235 kts 208°
2026-05-07 17:58 41.78170 -8.10622 10921 ft 233 kts 208°
2026-05-07 17:58 41.76769 -8.11673 10617 ft 231 kts 208°
2026-05-07 17:59 41.75374 -8.12718 10260 ft 232 kts 208°
2026-05-07 17:59 41.74004 -8.13746 10034 ft 228 kts 208°
2026-05-07 17:59 41.72611 -8.14788 9690 ft 228 kts 208°
2026-05-07 17:59 41.71241 -8.15814 9439 ft 224 kts 208°
2026-05-07 18:00 41.69838 -8.16723 9053 ft 225 kts 199°
2026-05-07 18:00 41.68345 -8.17394 8694 ft 226 kts 199°
2026-05-07 18:00 41.66882 -8.18053 8350 ft 226 kts 199°
2026-05-07 18:00 41.65421 -8.18717 8095 ft 222 kts 199°
2026-05-07 18:01 41.63956 -8.19387 7789 ft 221 kts 199°
2026-05-07 18:01 41.62503 -8.20053 7439 ft 222 kts 199°
2026-05-07 18:01 41.61057 -8.20713 7189 ft 219 kts 200°
2026-05-07 18:01 41.59637 -8.21362 7062 ft 215 kts 200°
2026-05-07 18:02 41.56739 -8.22687 6980 ft 217 kts 200°
2026-05-07 18:02 41.55300 -8.23345 6989 ft 223 kts 200°
2026-05-07 18:02 41.53835 -8.24014 6972 ft 219 kts 200°
2026-05-07 18:03 41.52409 -8.24663 6990 ft 217 kts 200°
2026-05-07 18:03 41.50960 -8.25326 6971 ft 221 kts 200°
2026-05-07 18:03 41.49521 -8.25980 6991 ft 217 kts 200°
2026-05-07 18:03 41.48081 -8.26639 6973 ft 221 kts 200°
2026-05-07 18:04 41.46634 -8.27301 6980 ft 221 kts 199°
2026-05-07 18:04 41.45195 -8.27956 6985 ft 219 kts 199°
2026-05-07 18:04 41.43740 -8.28619 6977 ft 221 kts 199°
2026-05-07 18:04 41.42277 -8.29285 6989 ft 224 kts 199°
2026-05-07 18:05 41.40834 -8.29941 6989 ft 215 kts 199°
2026-05-07 18:05 41.39394 -8.30595 6988 ft 221 kts 199°
2026-05-07 18:05 41.37961 -8.31245 6987 ft 214 kts 199°
2026-05-07 18:05 41.36552 -8.31884 6974 ft 211 kts 199°
2026-05-07 18:06 41.35219 -8.32491 6995 ft 195 kts 199°
2026-05-07 18:06 41.33958 -8.33061 7004 ft 189 kts 199°
2026-05-07 18:06 41.32675 -8.33644 7004 ft 201 kts 199°
2026-05-07 18:06 41.31379 -8.34232 6990 ft 193 kts 199°
2026-05-07 18:07 41.30116 -8.34803 6992 ft 191 kts 199°
2026-05-07 18:07 41.28861 -8.35371 6992 ft 190 kts 199°
2026-05-07 18:07 41.27610 -8.35939 6999 ft 190 kts 199°
2026-05-07 18:07 41.26352 -8.36509 6981 ft 192 kts 199°
2026-05-07 18:08 41.25092 -8.37078 6875 ft 190 kts 199°
2026-05-07 18:08 41.23844 -8.37641 6662 ft 188 kts 199°
2026-05-07 18:08 41.22605 -8.38200 6373 ft 188 kts 199°
2026-05-07 18:08 41.21364 -8.38761 6033 ft 190 kts 199°
2026-05-07 18:09 41.20114 -8.39323 5716 ft 190 kts 199°
2026-05-07 18:09 41.18853 -8.39892 5396 ft 192 kts 200°
2026-05-07 18:09 41.17598 -8.40456 5131 ft 190 kts 200°
2026-05-07 18:09 41.16342 -8.41020 4862 ft 191 kts 201°
2026-05-07 18:10 41.15082 -8.41588 4540 ft 192 kts 201°
2026-05-07 18:10 41.13818 -8.42157 4256 ft 191 kts 201°
2026-05-07 18:10 41.12568 -8.42719 4050 ft 186 kts 201°
2026-05-07 18:10 41.11310 -8.43282 4007 ft 195 kts 201°
2026-05-07 18:11 41.10041 -8.43854 3996 ft 192 kts 201°
2026-05-07 18:11 41.09216 -8.44267 3989 ft 190 kts 212°
2026-05-07 18:11 41.08204 -8.46080 4004 ft 190 kts 259°
2026-05-07 18:11 41.07994 -8.47820 3996 ft 189 kts 261°
2026-05-07 18:12 41.07808 -8.49446 3994 ft 170 kts 261°
2026-05-07 18:12 41.07635 -8.50913 3997 ft 152 kts 260°
2026-05-07 18:12 41.07476 -8.52229 3890 ft 140 kts 261°
2026-05-07 18:12 41.07319 -8.53505 3673 ft 140 kts 260°
2026-05-07 18:13 41.07163 -8.54761 3455 ft 138 kts 260°
2026-05-07 18:13 41.06999 -8.56044 3195 ft 139 kts 261°
2026-05-07 18:13 41.06834 -8.57335 3037 ft 145 kts 261°
2026-05-07 18:13 41.06670 -8.58652 2999 ft 142 kts 262°
2026-05-07 18:14 41.06513 -8.59922 3000 ft 142 kts 261°
2026-05-07 18:14 41.06348 -8.61248 3014 ft 145 kts 261°
2026-05-07 18:14 41.06415 -8.62498 2995 ft 135 kts 294°
2026-05-07 18:14 41.07079 -8.63457 3005 ft 148 kts 332°
2026-05-07 18:15 41.08083 -8.63778 3004 ft 149 kts 347°
2026-05-07 18:15 41.09107 -8.64017 3005 ft 150 kts 347°
2026-05-07 18:15 41.10120 -8.64269 2999 ft 148 kts 345°
2026-05-07 18:15 41.11139 -8.64530 2975 ft 150 kts 344°
2026-05-07 18:16 41.12165 -8.64796 2706 ft 152 kts 346°
2026-05-07 18:16 41.13182 -8.65009 2501 ft 148 kts 348°
2026-05-07 18:16 41.14197 -8.65254 2125 ft 149 kts 343°
2026-05-07 18:16 41.15220 -8.65523 1802 ft 147 kts 345°
2026-05-07 18:17 41.16161 -8.65789 1697 ft 128 kts 340°
2026-05-07 18:17 41.17046 -8.66077 1454 ft 135 kts 341°
2026-05-07 18:17 41.17937 -8.66326 1284 ft 129 kts 343°
2026-05-07 18:17 41.18822 -8.66560 1143 ft 131 kts 345°
2026-05-07 18:18 41.19708 -8.66773 987 ft 129 kts 347°
2026-05-07 18:18 41.20595 -8.66986 795 ft 130 kts 345°
2026-05-07 18:18 41.21467 -8.67233 632 ft 123 kts 343°
2026-05-07 18:18 41.22322 -8.67467 477 ft 128 kts 341°
2026-05-07 18:19 41.23187 -8.67693 305 ft 124 kts 343°
2026-05-07 18:19 41.24042 -8.67925 215 ft 124 kts 350°
2026-05-07 18:19 41.24693 -8.68099 206 ft 67 kts 348°
2026-05-07 18:19 41.25037 -8.68175 192 ft 47 kts 357°
2026-05-07 18:20 41.25265 -8.68105 182 ft 0 kts 20°
2026-05-07 18:20 41.25292 -8.68075 181 ft 11 kts 63°
2026-05-07 18:20 41.25245 -8.68007 194 ft 11 kts 171°
2026-05-07 18:20 41.25165 -8.67989 194 ft 12 kts 168°
2026-05-07 18:21 41.25081 -8.67966 190 ft 13 kts 169°
2026-05-07 18:21 41.24994 -8.67944 199 ft 13 kts 168°
2026-05-07 18:21 41.24904 -8.67916 209 ft 13 kts 163°
2026-05-07 18:21 41.24819 -8.67870 209 ft 13 kts 155°
2026-05-07 18:22 41.24740 -8.67824 207 ft 12 kts 164°
2026-05-07 18:22 41.24713 -8.67816 217 ft 12 kts 170°
2026-05-07 18:22 41.24586 -8.67783 215 ft 11 kts 165°
2026-05-07 18:22 41.24511 -8.67759 218 ft 11 kts 169°
2026-05-07 18:23 41.24438 -8.67742 222 ft 11 kts 169°
2026-05-07 18:23 41.24367 -8.67721 226 ft 10 kts 166°
2026-05-07 18:23 41.24299 -8.67691 231 ft 9 kts 148°
2026-05-07 18:23 41.24261 -8.67631 233 ft 8 kts 126°
2026-05-07 18:24 41.24228 -8.67572 237 ft 7 kts 127°
2026-05-07 18:24 41.24196 -8.67525 239 ft 7 kts 136°
2026-05-07 18:24 41.24172 -8.67496 241 ft 7 kts 141°
2026-05-07 18:24 41.24131 -8.67459 242 ft 8 kts 150°
2026-05-07 18:25 41.24072 -8.67425 242 ft 5 kts 148°
2026-05-07 18:25 41.24029 -8.67404 242 ft 8 kts 159°
2026-05-07 18:25 41.24018 -8.67337 242 ft 6 kts 86°
2026-05-07 18:25 41.24018 -8.67323 242 ft 3 kts 89°
2026-05-07 18:26 41.24019 -8.67305 242 ft 0 kts 89°